Weather History for Liberia, Costa Rica

Change the Weather History Date:

Wednesday, November 14, 2012

  Actual Average Record
Temperature  
Mean Temperature 80 °F -  
Max Temperature 91 °F 86 °F 91 °F (2012)
Min Temperature 69 °F 72 °F 68 °F (2006)
Cooling Degree Days 15    
Growing Degree Days 30 (Base 50)    
Moisture  
Dew Point 67 °F    
Average Humidity 59    
Maximum Humidity 88    
Minimum Humidity 38    
Precipitation  
Precipitation 0.00 in - - ()
Sea Level Pressure  
Sea Level Pressure 29.87 in    
Wind  
Wind Speed 4 mph ()    
Max Wind Speed 9 mph    
Max Gust Speed -    
Visibility 9.1 miles    
Events      
Averages and records for this station are not official NWS values.
T = Trace of Precipitation, MM = Missing Value Source: Averaged Metar Reports

Daily Weather History Graph

Daily Weather History Graph

Search for Another Location

Airport:

Trip Planner

Search our weather history database for the weather conditions in past years. The results will help you decide how hot, cold, wet, or windy it might be!

Date:

Astronomy

Nov. 14, 2012 Rise Set
Actual Time 5:37 AM CST 5:15 PM CST
Civil Twilight 5:15 AM CST 5:38 PM CST
Nautical Twilight 4:49 AM CST 6:03 PM CST
Astronomical Twilight 4:24 AM CST 6:29 PM CST
Moon 6:17 AM CST (11/14) 6:14 PM CST (11/14)
Length of Visible Light 12h 22m
Length of Day
11h 38m
New Moon, 1% of the Moon is Illuminated
Nov 14
New Moon
Nov 20
First Quarter
Nov 28
Full
Dec 6
Last Quarter
Dec 13
New

Hourly Weather History & Observations

Time (CST) Temp. Heat Index Dew Point Humidity Pressure Visibility Wind Dir Wind Speed Gust Speed Precip Events Conditions
6:00 AM 69 °F - 65 °F 85% 29.88 in 12 mi Calm Calm - -   Overcast
6:00 AM 69.8 °F - 66.2 °F 88% 29.86 in - Calm Calm - N/A   Clear
7:00 AM 77.0 °F - 68.0 °F 74% 29.90 in - SSE 3.5 mph - N/A   Clear
8:00 AM 78.8 °F - 66.2 °F 65% 29.92 in - SSW 4.6 mph - N/A   Clear
9:00 AM 82 °F - 67 °F 50% 29.94 in 12 mi WSW 5.8 mph - -   Overcast
9:00 AM 82.4 °F 84.6 °F 66.2 °F 58% 29.92 in - WSW 5.8 mph - N/A   Clear
10:00 AM 86.0 °F 88.2 °F 66.2 °F 51% 29.90 in - West 5.8 mph - N/A   Clear
11:00 AM 87.8 °F 89.4 °F 64.4 °F 46% 29.89 in - SW 4.6 mph - N/A   Clear
12:00 PM 88 °F - 66 °F 38% 29.87 in 12 mi East 9.2 mph - -   Overcast
12:00 PM 87.8 °F 90.4 °F 66.2 °F 49% 29.86 in - East 9.2 mph - N/A   Clear
1:00 PM 89.6 °F 91.1 °F 64.4 °F 43% 29.84 in - West 5.8 mph - N/A   Clear
2:00 PM 89.6 °F 92.2 °F 66.2 °F 46% 29.82 in - West 8.1 mph - N/A   Clear
3:00 PM 87 °F - 66 °F 40% 29.83 in 12 mi East 9.2 mph - -   Clear
3:00 PM 87.8 °F 90.4 °F 66.2 °F 49% 29.81 in - East 9.2 mph - N/A   Clear
4:00 PM 86.0 °F 89.4 °F 68.0 °F 55% 29.82 in 6.2 mi WSW 4.6 mph - N/A   Mostly Cloudy
5:00 PM 82.4 °F 84.6 °F 66.2 °F 58% 29.84 in 6.2 mi SE 4.6 mph - N/A   Mostly Cloudy
6:00 PM 78 °F - 68 °F 65% 29.87 in 12 mi WSW 5.8 mph - -   Overcast
6:00 PM 77.0 °F - 68.0 °F 74% 29.86 in 6.2 mi WSW 5.8 mph - N/A   Mostly Cloudy
7:00 PM 77.0 °F - 68.0 °F 74% 29.88 in 6.2 mi South 5.8 mph - N/A   Mostly Cloudy
8:00 PM 75.2 °F - 68.0 °F 78% 29.90 in 6.2 mi SSW 3.5 mph - N/A   Mostly Cloudy